カタログに戻る

CZ-2D DEB

運用中SSO
NORAD 44609·DEBRIS·🇨🇳 China

打ち上げ Oct 9, 2017 から Jiuquan Satellite Launch Center

Loading…

次のパス (今後24時間)

TLE

最新Source: Space-Track

元期: Sep 13, 2026, 12:23 UTC

1 44609U 17060B   26256.51623632  .00003989  00000-0  31233-3 0  9990
2 44609  97.5361 272.2493 0026049  16.4629 343.7436 15.01310106478438

AllMySatでCZ-2D DEBをリアルタイム追跡

Download on the App Store